GW5580 Weather Reports


Display with metric or nautical units.
time (UTC)temp
F
wind
direction
speed
MPH
gust
MPH
rain 1hr
in
rain 24hr
in
rain mn
in
humidity
%
barometer
mb
20260902175841 78 352 4.0 7.0 0.00 0.00 0.00 69 1018.0
20260902175341 78 346 5.0 11.0 0.00 0.00 0.00 69 1018.0
20260902174842 78 2 8.0 13.0 0.00 0.00 0.00 69 1018.0
20260902174342 78 17 8.0 11.0 0.00 0.00 0.00 69 1018.0
20260902173843 78 22 7.0 13.0 0.00 0.00 0.00 70 1018.0
20260902173341 78 13 7.0 10.0 0.00 0.00 0.00 71 1018.0
20260902172841 78 32 9.0 9.0 0.00 0.00 0.00 70 1018.0
20260902172341 80 288 6.0 9.0 0.00 0.00 0.00 66 1018.0
20260902171841 80 16 9.0 11.0 0.00 0.00 0.00 66 1018.0
20260902171342 80 348 5.0 9.0 0.00 0.00 0.00 65 1018.0
20260902170841 80 25 7.0 9.0 0.00 0.00 0.00 66 1018.0
20260902170343 80 34 4.0 13.0 0.00 0.00 0.00 66 1018.0
20260902165842 80 353 4.0 7.0 0.00 0.00 0.00 68 1018.0
20260902165341 80 1 6.0 10.0 0.00 0.00 0.00 68 1018.0
20260902164842 79 309 5.0 13.0 0.00 0.00 0.00 67 1018.0
20260902164341 80 8 7.0 11.0 0.00 0.00 0.00 67 1018.0
20260902163841 80 341 6.0 11.0 0.00 0.00 0.00 67 1018.0
20260902163343 79 8 4.0 13.0 0.00 0.00 0.00 67 1018.0
20260902162842 80 335 12.0 15.0 0.00 0.00 0.00 66 1018.0
20260902162341 80 339 6.0 9.0 0.00 0.00 0.00 65 1018.0
20260902161842 81 352 5.0 13.0 0.00 0.00 0.00 65 1018.0
20260902161343 81 330 7.0 11.0 0.00 0.00 0.00 64 1018.0
20260902160842 81 2 5.0 9.0 0.00 0.00 0.00 65 1018.0
20260902160342 82 2 6.0 13.0 0.00 0.00 0.00 64 1018.0
20260902155841 82 350 6.0 11.0 0.00 0.00 0.00 63 1018.0
20260902155344 82 28 12.0 15.0 0.00 0.00 0.00 62 1018.0
20260902154841 82 14 9.0 16.0 0.00 0.00 0.00 63 1018.0
20260902154342 82 37 5.0 13.0 0.00 0.00 0.00 62 1018.0
20260902153841 82 326 6.0 11.0 0.00 0.00 0.00 62 1018.0
20260902153341 82 360 7.0 13.0 0.00 0.00 0.00 61 1018.0
20260902152841 83 1 8.0 11.0 0.00 0.00 0.00 63 1018.0
20260902152341 83 17 9.0 13.0 0.00 0.00 0.00 62 1018.0
20260902151842 83 312 6.0 14.0 0.00 0.00 0.00 63 1018.0
20260902151342 83 5 10.0 16.0 0.00 0.00 0.00 63 1018.0
20260902150842 83 24 11.0 17.0 0.00 0.00 0.00 61 1019.0
20260902150341 83 12 9.0 14.0 0.00 0.00 0.00 62 1018.0
20260902145842 83 306 8.0 15.0 0.00 0.00 0.00 61 1018.0
20260902145341 82 358 10.0 17.0 0.00 0.00 0.00 62 1018.0
20260902144842 82 354 7.0 15.0 0.00 0.00 0.00 63 1018.0
20260902144342 83 18 7.0 15.0 0.00 0.00 0.00 63 1018.0
20260902143841 83 25 9.0 14.0 0.00 0.00 0.00 63 1018.0
20260902143341 82 9 13.0 15.0 0.00 0.00 0.00 64 1018.0
20260902142841 82 13 9.0 14.0 0.00 0.00 0.00 63 1019.0
20260902142342 84 22 6.0 17.0 0.00 0.00 0.00 62 1019.0
20260902141841 83 34 8.0 15.0 0.00 0.00 0.00 61 1019.0
20260902140929 83 6 9.0 17.0 0.00 0.00 0.00 62 1019.0
20260902135909 83 51 11.0 13.0 0.00 0.00 0.00 62 1019.0
20260902135343 84 22 5.0 10.0 0.00 0.00 0.00 61 1019.0
20260902134841 83 14 11.0 13.0 0.00 0.00 0.00 62 1019.0
20260902134341 82 315 8.0 17.0 0.00 0.00 0.00 63 1019.0
20260902133841 83 344 6.0 11.0 0.00 0.00 0.00 63 1019.0
20260902133341 82 338 8.0 10.0 0.00 0.00 0.00 63 1019.0
20260902132841 82 16 4.0 13.0 0.00 0.00 0.00 63 1019.0
20260902132341 84 343 6.0 13.0 0.00 0.00 0.00 62 1019.0
20260902131843 82 51 4.0 9.0 0.00 0.00 0.00 63 1019.0
20260902131341 82 5 8.0 11.0 0.00 0.00 0.00 63 1019.0
20260902130842 82 17 9.0 18.0 0.00 0.00 0.00 63 1019.0
20260902130341 83 27 9.0 15.0 0.00 0.00 0.00 62 1019.0
20260902125841 83 56 9.0 14.0 0.00 0.00 0.00 62 1019.0
20260902125341 83 2 10.0 13.0 0.00 0.00 0.00 63 1019.0
20260902124841 82 22 14.0 20.0 0.00 0.00 0.00 63 1019.0
20260902124341 81 348 10.0 17.0 0.00 0.00 0.00 63 1019.0
20260902123840 82 10 13.0 14.0 0.00 0.00 0.00 62 1020.0
20260902123341 83 346 11.0 17.0 0.00 0.00 0.00 62 1019.0
20260902122841 83 359 9.0 13.0 0.00 0.00 0.00 61 1020.0
20260902122341 83 249 7.0 16.0 0.00 0.00 0.00 63 1020.0
20260902121841 82 30 9.0 14.0 0.00 0.00 0.00 63 1020.0
20260902121341 82 16 14.0 21.0 0.00 0.00 0.00 63 1020.0
20260902120841 83 24 12.0 15.0 0.00 0.00 0.00 61 1020.0
20260902120341 82 17 5.0 16.0 0.00 0.00 0.00 62 1020.0
20260902115841 83 17 11.0 20.0 0.00 0.00 0.00 62 1020.0
20260902115342 83 18 9.0 13.0 0.00 0.00 0.00 61 1019.0
20260902114841 83 19 8.0 14.0 0.00 0.00 0.00 62 1020.0
20260902114344 82 10 8.0 13.0 0.00 0.00 0.00 63 1020.0
20260902113841 81 9 10.0 15.0 0.00 0.00 0.00 63 1019.0
20260902113344 82 31 8.0 14.0 0.00 0.00 0.00 62 1020.0
20260902112842 83 358 6.0 15.0 0.00 0.00 0.00 63 1020.0
20260902112342 82 349 6.0 10.0 0.00 0.00 0.00 62 1020.0
20260902111842 81 73 11.0 16.0 0.00 0.00 0.00 64 1020.0
20260902111341 80 8 9.0 16.0 0.00 0.00 0.00 64 1020.0
20260902110842 78 21 5.0 10.0 0.00 0.00 0.00 67 1020.0
20260902110343 78 7 8.0 11.0 0.00 0.00 0.00 66 1020.0
20260902105841 79 342 5.0 9.0 0.00 0.00 0.00 66 1020.0
20260902105341 79 354 7.0 10.0 0.00 0.00 0.00 64 1020.0
20260902104841 79 29 8.0 13.0 0.00 0.00 0.00 64 1020.0
20260902104341 80 19 6.0 10.0 0.00 0.00 0.00 64 1020.0
20260902103841 79 98 5.0 10.0 0.00 0.00 0.00 64 1020.0
20260902103341 79 29 6.0 10.0 0.00 0.00 0.00 64 1020.0
20260902102841 78 22 12.0 15.0 0.00 0.00 0.00 65 1020.0
20260902102342 78 3 7.0 14.0 0.00 0.00 0.00 67 1020.0
20260902101841 77 20 12.0 15.0 0.00 0.00 0.00 67 1020.0
20260902101341 76 351 9.0 15.0 0.00 0.00 0.00 69 1020.0
20260902100841 76 28 9.0 10.0 0.00 0.00 0.00 71 1020.0
20260902100342 76 14 9.0 11.0 0.00 0.00 0.00 71 1020.0
20260902095842 76 350 5.0 13.0 0.00 0.00 0.00 71 1020.0
20260902095342 76 349 5.0 7.0 0.00 0.00 0.00 70 1019.0
20260902094841 77 37 6.0 9.0 0.00 0.00 0.00 69 1019.0
20260902094341 77 332 7.0 10.0 0.00 0.00 0.00 68 1020.0
20260902093842 77 360 15.0 18.0 0.00 0.00 0.00 69 1019.0
20260902093343 76 17 9.0 15.0 0.00 0.00 0.00 70 1020.0
20260902092841 76 6 8.0 15.0 0.00 0.00 0.00 70 1019.0
20260902092343 77 12 9.0 14.0 0.00 0.00 0.00 71 1019.0
20260902091841 75 8 8.0 11.0 0.00 0.00 0.00 71 1019.0
20260902091344 75 28 4.0 8.0 0.00 0.00 0.00 70 1019.0
20260902090841 75 11 6.0 9.0 0.00 0.00 0.00 69 1019.0
20260902090341 75 20 6.0 8.0 0.00 0.00 0.00 69 1019.0
20260902085844 75 21 5.0 9.0 0.00 0.00 0.00 70 1019.0
20260902085341 75 27 8.0 15.0 0.00 0.00 0.00 70 1019.0
20260902084841 75 10 11.0 20.0 0.00 0.00 0.00 71 1019.0
20260902084341 75 358 7.0 11.0 0.00 0.00 0.00 72 1019.0
20260902083841 75 18 11.0 17.0 0.00 0.00 0.00 72 1019.0
20260902083341 75 338 3.0 9.0 0.00 0.00 0.00 71 1019.0
20260902082841 75 357 5.0 8.0 0.00 0.00 0.00 70 1019.0
20260902082341 75 31 10.0 13.0 0.00 0.00 0.00 70 1019.0
20260902081841 75 294 3.0 9.0 0.00 0.00 0.00 71 1019.0
20260902081341 75 18 4.0 7.0 0.00 0.00 0.00 71 1019.0
20260902080841 74 26 9.0 14.0 0.00 0.00 0.00 70 1019.0
20260902080341 74 15 10.0 14.0 0.00 0.00 0.00 70 1019.0
20260902075841 74 30 6.0 16.0 0.00 0.00 0.00 72 1019.0
20260902075342 74 358 4.0 8.0 0.00 0.00 0.00 74 1019.0
20260902074841 74 351 8.0 13.0 0.00 0.00 0.00 73 1019.0
20260902074341 73 326 5.0 7.0 0.00 0.00 0.00 73 1019.0
20260902073841 73 334 3.0 8.0 0.00 0.00 0.00 73 1019.0
20260902073341 73 351 4.0 7.0 0.00 0.00 0.00 72 1019.0
20260902072841 73 360 3.0 5.0 0.00 0.00 0.00 72 1019.0
20260902072342 73 19 4.0 9.0 0.00 0.00 0.00 72 1018.0
20260902071841 73 7 6.0 14.0 0.00 0.00 0.00 73 1019.0
20260902071344 73 18 9.0 17.0 0.00 0.00 0.00 74 1019.0
20260902070842 73 15 8.0 11.0 0.00 0.00 0.00 74 1019.0
20260902070341 73 25 12.0 14.0 0.00 0.00 0.00 75 1019.0
20260902065841 73 334 5.0 9.0 0.00 0.00 0.00 75 1018.0
20260902065341 73 333 5.0 8.0 0.00 0.00 0.00 75 1018.0
20260902064841 73 346 4.0 6.0 0.00 0.00 0.00 74 1018.0
20260902064341 73 337 6.0 9.0 0.00 0.00 0.00 75 1018.0
20260902063841 73 9 6.0 9.0 0.00 0.00 0.00 75 1019.0
20260902063341 73 301 7.0 16.0 0.00 0.00 0.00 75 1018.0
20260902062841 73 11 9.0 14.0 0.00 0.00 0.00 75 1018.0
20260902062341 73 2 7.0 13.0 0.00 0.00 0.00 76 1018.0
20260902061407 73 33 9.0 13.0 0.00 0.00 0.00 77 1018.0
20260902060843 72 4 4.0 6.0 0.00 0.00 0.00 77 1018.0
20260902060342 72 7 2.0 5.0 0.00 0.00 0.00 77 1018.0
20260902055841 72 4 3.0 5.0 0.00 0.00 0.00 77 1018.0
20260902055341 73 2 7.0 10.0 0.00 0.00 0.00 77 1018.0
20260902054841 73 28 9.0 11.0 0.00 0.00 0.00 77 1018.0
20260902054341 73 7 10.0 16.0 0.00 0.00 0.00 76 1018.0
20260902053840 73 37 6.0 14.0 0.00 0.00 0.00 77 1018.0
20260902053343 73 27 13.0 15.0 0.00 0.00 0.00 78 1018.0
20260902052841 73 17 7.0 10.0 0.00 0.00 0.00 78 1018.0
20260902052342 72 338 9.0 11.0 0.00 0.00 0.00 77 1018.0
20260902051842 72 33 8.0 11.0 0.00 0.00 0.00 77 1018.0
20260902051341 72 359 5.0 9.0 0.00 0.00 0.00 77 1018.0
20260902050841 72 41 8.0 11.0 0.00 0.00 0.00 77 1018.0
20260902050341 72 18 9.0 11.0 0.00 0.00 0.00 77 1018.0
20260902045841 72 19 8.0 11.0 0.00 0.00 0.00 77 1018.0
20260902045341 72 44 11.0 13.0 0.00 0.00 0.00 77 1018.0
20260902044841 72 23 11.0 13.0 0.00 0.00 0.00 78 1018.0
20260902044341 72 20 9.0 15.0 0.00 0.00 0.00 79 1018.0
20260902043841 72 19 5.0 13.0 0.00 0.00 0.00 79 1018.0
20260902043341 72 18 7.0 13.0 0.00 0.00 0.00 79 1018.0
20260902042841 73 17 8.0 14.0 0.00 0.00 0.00 79 1018.0
20260902042341 73 31 7.0 15.0 0.00 0.00 0.00 79 1018.0
20260902041841 73 22 9.0 10.0 0.00 0.00 0.00 79 1018.0
20260902041341 73 20 11.0 14.0 0.00 0.00 0.00 79 1018.0
20260902040841 73 9 9.0 15.0 0.00 0.00 0.00 79 1018.0
20260902040342 73 37 11.0 14.0 0.00 0.00 0.00 80 1018.0
20260902035841 73 340 8.0 13.0 0.00 0.00 0.00 81 1018.0
20260902035341 73 34 8.0 11.0 0.00 0.00 0.00 81 1018.0
20260902034841 73 351 3.0 11.0 0.00 0.00 0.00 81 1018.0
20260902034341 73 351 2.0 5.0 0.00 0.00 0.00 80 1018.0
20260902033841 73 17 5.0 9.0 0.00 0.00 0.00 80 1018.0
20260902033340 73 16 6.0 10.0 0.00 0.00 0.00 80 1018.0
20260902032840 73 340 5.0 7.0 0.00 0.00 0.00 80 1018.0
20260902032341 73 34 3.0 7.0 0.00 0.00 0.00 79 1018.0
20260902031842 73 20 6.0 9.0 0.00 0.00 0.00 79 1018.0
20260902031342 72 348 5.0 8.0 0.00 0.00 0.00 79 1018.0
20260902030841 73 13 4.0 8.0 0.00 0.00 0.00 80 1018.0
20260902030341 73 12 4.0 8.0 0.00 0.00 0.00 80 1018.0
20260902025841 72 351 3.0 6.0 0.00 0.00 0.00 80 1018.0
20260902025341 72 6 4.0 8.0 0.00 0.00 0.00 80 1018.0
20260902024842 73 358 3.0 9.0 0.00 0.00 0.00 80 1018.0
20260902024342 73 31 3.0 6.0 0.00 0.00 0.00 79 1018.0
20260902023841 73 15 7.0 10.0 0.00 0.00 0.00 79 1018.0
20260902023344 72 28 10.0 15.0 0.00 0.00 0.00 79 1018.0
20260902022841 72 4 3.0 10.0 0.00 0.00 0.00 79 1018.0
20260902022341 73 45 7.0 13.0 0.00 0.00 0.00 79 1018.0
20260902021841 73 332 7.0 15.0 0.00 0.00 0.00 79 1018.0
20260902021341 73 4 7.0 9.0 0.00 0.00 0.00 79 1018.0
20260902020841 73 311 9.0 17.0 0.00 0.00 0.00 80 1018.0
20260902020341 73 354 6.0 10.0 0.00 0.00 0.00 80 1018.0
20260902015841 73 8 3.0 5.0 0.00 0.00 0.00 79 1018.0
20260902015342 73 20 6.0 14.0 0.00 0.00 0.00 79 1019.0
20260902014841 73 10 11.0 14.0 0.00 0.00 0.00 79 1018.0
20260902014341 73 38 10.0 15.0 0.00 0.00 0.00 79 1018.0
20260902013841 73 15 6.0 9.0 0.00 0.00 0.00 79 1019.0
20260902013341 72 316 5.0 8.0 0.00 0.00 0.00 79 1019.0
20260902012841 72 27 4.0 6.0 0.00 0.00 0.00 79 1019.0
20260902012341 72 15 4.0 7.0 0.00 0.00 0.00 79 1019.0
20260902011841 73 11 10.0 11.0 0.00 0.00 0.00 80 1019.0
20260902011341 73 5 5.0 10.0 0.00 0.00 0.00 79 1019.0
20260902010843 73 20 9.0 14.0 0.00 0.00 0.00 79 1019.0
20260902010341 73 24 12.0 14.0 0.00 0.00 0.00 79 1019.0
20260902005843 73 342 11.0 17.0 0.00 0.00 0.00 79 1019.0
20260902005341 73 9 8.0 14.0 0.00 0.00 0.00 79 1019.0
20260902004842 73 20 7.0 9.0 0.00 0.00 0.00 80 1019.0
20260902004341 73 346 4.0 10.0 0.00 0.00 0.00 79 1019.0
20260902003842 73 45 6.0 9.0 0.00 0.00 0.00 79 1019.0
20260902003341 73 13 5.0 13.0 0.00 0.00 0.00 79 1019.0
20260902002842 73 8 4.0 9.0 0.00 0.00 0.00 78 1019.0
20260902002341 73 63 9.0 14.0 0.00 0.00 0.00 78 1019.0
20260902001841 73 16 13.0 18.0 0.00 0.00 0.00 79 1019.0
20260902001341 73 18 11.0 16.0 0.00 0.00 0.00 79 1019.0
20260902000842 73 357 7.0 11.0 0.00 0.00 0.00 78 1019.0
20260902000344 73 354 5.0 6.0 0.00 0.00 0.00 78 1019.0
20260901235841 73 19 6.0 7.0 0.00 0.00 0.00 78 1019.0
20260901235341 73 346 4.0 13.0 0.00 0.00 0.00 78 1019.0
20260901234841 73 355 5.0 11.0 0.00 0.00 0.00 78 1019.0
20260901234341 73 348 3.0 10.0 0.00 0.00 0.00 79 1019.0
20260901233841 73 327 8.0 14.0 0.00 0.00 0.00 79 1019.0
20260901233341 73 56 8.0 11.0 0.00 0.00 0.00 79 1019.0
20260901232841 74 35 7.0 11.0 0.00 0.00 0.00 80 1019.0
20260901232341 74 62 9.0 15.0 0.00 0.00 0.00 79 1020.0
20260901231841 74 13 6.0 11.0 0.00 0.00 0.00 78 1019.0
20260901231342 73 23 6.0 13.0 0.00 0.00 0.00 78 1019.0
20260901230841 74 347 13.0 20.0 0.00 0.00 0.00 79 1020.0
20260901230341 74 45 8.0 16.0 0.00 0.00 0.00 79 1020.0
20260901225841 74 33 8.0 15.0 0.00 0.00 0.00 79 1020.0
20260901225341 73 340 11.0 16.0 0.00 0.00 0.00 79 1020.0
20260901224841 74 19 13.0 21.0 0.00 0.00 0.00 80 1020.0
20260901224341 74 27 12.0 18.0 0.00 0.00 0.00 80 1020.0
20260901223841 74 11 11.0 15.0 0.00 0.00 0.00 80 1020.0
20260901223341 74 6 9.0 14.0 0.00 0.00 0.00 80 1020.0
20260901222841 74 342 10.0 13.0 0.00 0.00 0.00 80 1020.0
20260901222341 74 31 9.0 15.0 0.00 0.00 0.00 80 1019.0
20260901221841 74 31 5.0 13.0 0.00 0.00 0.00 79 1020.0
20260901221341 74 9 9.0 13.0 0.00 0.00 0.00 80 1020.0
20260901220841 74 36 6.0 13.0 0.00 0.00 0.00 79 1020.0
20260901220342 74 353 9.0 13.0 0.00 0.00 0.00 79 1020.0
20260901215842 74 23 7.0 14.0 0.00 0.00 0.00 79 1020.0
20260901215341 74 344 12.0 16.0 0.00 0.00 0.00 80 1020.0
20260901214841 74 38 6.0 11.0 0.00 0.00 0.00 79 1020.0
20260901214341 74 38 7.0 13.0 0.00 0.00 0.00 79 1020.0
20260901213842 74 332 9.0 15.0 0.00 0.00 0.00 80 1020.0
20260901213341 74 347 9.0 13.0 0.00 0.00 0.00 80 1020.0
20260901212841 74 26 7.0 14.0 0.00 0.00 0.00 79 1020.0
20260901212341 74 23 7.0 14.0 0.00 0.00 0.00 79 1020.0
20260901211841 74 19 11.0 16.0 0.00 0.00 0.00 79 1020.0
20260901211342 74 24 11.0 14.0 0.00 0.00 0.00 80 1019.0
20260901210841 74 318 8.0 13.0 0.00 0.00 0.00 80 1019.0
20260901210341 74 27 5.0 7.0 0.00 0.00 0.00 79 1020.0
20260901205841 74 24 8.0 14.0 0.00 0.00 0.00 79 1019.0
20260901205342 74 313 9.0 15.0 0.00 0.00 0.00 79 1020.0
20260901204841 74 25 6.0 11.0 0.00 0.00 0.00 79 1019.0
20260901204342 74 5 10.0 13.0 0.00 0.00 0.00 79 1019.0
20260901203842 74 31 6.0 10.0 0.00 0.00 0.00 79 1019.0
20260901203341 74 27 10.0 15.0 0.00 0.00 0.00 80 1019.0
20260901202841 74 12 7.0 14.0 0.00 0.00 0.00 80 1019.0
20260901202342 74 38 6.0 10.0 0.00 0.00 0.00 80 1019.0
20260901201841 74 14 5.0 6.0 0.00 0.00 0.00 80 1019.0
20260901201341 74 357 3.0 7.0 0.00 0.00 0.00 80 1019.0
20260901200841 74 16 5.0 11.0 0.00 0.00 0.00 80 1019.0
20260901200342 74 25 5.0 8.0 0.00 0.00 0.00 80 1019.0
20260901195842 74 18 4.0 11.0 0.00 0.00 0.00 80 1019.0
20260901195341 74 29 8.0 15.0 0.00 0.00 0.00 80 1019.0
20260901194841 75 8 8.0 13.0 0.00 0.00 0.00 79 1019.0
20260901194341 75 4 9.0 15.0 0.00 0.00 0.00 79 1019.0
20260901193841 75 329 6.0 11.0 0.00 0.00 0.00 78 1019.0
20260901193341 75 3 7.0 14.0 0.00 0.00 0.00 78 1019.0
20260901192841 75 360 11.0 14.0 0.00 0.00 0.00 78 1019.0
20260901192341 75 4 5.0 14.0 0.00 0.00 0.00 79 1019.0
20260901191841 75 336 5.0 8.0 0.00 0.00 0.00 78 1019.0
20260901191346 75 334 8.0 10.0 0.00 0.00 0.00 78 1019.0
20260901190841 75 8 5.0 10.0 0.00 0.00 0.00 77 1019.0
20260901190341 75 14 7.0 13.0 0.00 0.00 0.00 77 1019.0
20260901185841 76 12 11.0 16.0 0.00 0.00 0.00 77 1019.0
20260901185341 76 315 9.0 15.0 0.00 0.00 0.00 77 1019.0
20260901184842 76 18 6.0 11.0 0.00 0.00 0.00 77 1018.0
20260901184341 77 3 6.0 13.0 0.00 0.00 0.00 76 1019.0
20260901183841 77 36 11.0 15.0 0.00 0.00 0.00 75 1019.0
20260901183341 77 17 9.0 17.0 0.00 0.00 0.00 75 1018.0
20260901182841 77 28 12.0 17.0 0.00 0.00 0.00 75 1018.0
20260901182341 77 34 6.0 18.0 0.00 0.00 0.00 76 1019.0
20260901181841 78 13 12.0 20.0 0.00 0.00 0.00 76 1019.0
20260901181341 77 21 6.0 13.0 0.00 0.00 0.00 76 1019.0
20260901180841 77 2 10.0 16.0 0.00 0.00 0.00 76 1019.0
20260901180341 77 320 6.0 8.0 0.00 0.00 0.00 76 1019.0